AFL1226 UUEE-UWGG

Flight info

Callsign AFL1226
Flight time 0h 42m
Altitude 35000
Route KOGOM3G KOGOM L94 USTOK USTOK2P
Aircraft A320/M-SDE3FGHIRWY/LB1

Departure

Time 2026-04-24 19:51
Airport Sheremetyevo International Airport (UUEE)

Arrival

Time 2026-04-24 20:33
Airport Nizhny Novgorod / Strigino International Airport (UWGG)
Time Latitude Longitude Altitude Speed Heading
2026-04-24 19:30 55.97995 37.41577 639 ft 0 kts 76°
2026-04-24 19:40 55.97995 37.41576 639 ft 0 kts 76°
2026-04-24 19:41 55.97995 37.41573 640 ft 3 kts 76°
2026-04-24 19:41 55.97988 37.41528 643 ft 3 kts 77°
2026-04-24 19:42 55.97985 37.41496 640 ft 2 kts 89°
2026-04-24 19:42 55.97985 37.41480 640 ft 1 kts 120°
2026-04-24 19:42 55.97987 37.41471 640 ft 1 kts 147°
2026-04-24 19:42 55.97995 37.41464 644 ft 1 kts 162°
2026-04-24 19:43 55.98002 37.41460 644 ft 1 kts 165°
2026-04-24 19:43 55.98004 37.41459 643 ft 0 kts 165°
2026-04-24 19:46 55.97999 37.41461 645 ft 4 kts 165°
2026-04-24 19:46 55.97930 37.41495 642 ft 18 kts 165°
2026-04-24 19:46 55.97796 37.41557 642 ft 21 kts 164°
2026-04-24 19:46 55.97696 37.41597 639 ft 12 kts 182°
2026-04-24 19:47 55.97612 37.41649 642 ft 16 kts 105°
2026-04-24 19:47 55.97637 37.41876 643 ft 19 kts 74°
2026-04-24 19:47 55.97673 37.42106 639 ft 19 kts 75°
2026-04-24 19:47 55.97708 37.42342 645 ft 20 kts 74°
2026-04-24 19:48 55.97744 37.42585 639 ft 21 kts 75°
2026-04-24 19:48 55.97783 37.42841 643 ft 22 kts 76°
2026-04-24 19:48 55.97870 37.43424 639 ft 26 kts 75°
2026-04-24 19:49 55.97947 37.43963 639 ft 13 kts 95°
2026-04-24 19:49 55.97809 37.44074 642 ft 14 kts 194°
2026-04-24 19:50 55.97755 37.43837 641 ft 39 kts 255°
2026-04-24 19:50 55.97616 37.42912 644 ft 111 kts 255°
2026-04-24 19:51 55.97082 37.39336 1346 ft 159 kts 256°
2026-04-24 19:51 55.96773 37.37425 2057 ft 166 kts 259°
2026-04-24 19:52 55.96081 37.32931 2804 ft 213 kts 263°
2026-04-24 19:52 55.96174 37.30221 3280 ft 230 kts 294°
2026-04-24 19:52 55.97158 37.27914 4050 ft 239 kts 324°
2026-04-24 19:52 55.98688 37.26723 5079 ft 244 kts 349°
2026-04-24 19:53 56.00391 37.26951 6103 ft 252 kts 16°
2026-04-24 19:53 56.01883 37.28688 7055 ft 265 kts 45°
2026-04-24 19:53 56.02787 37.35189 8957 ft 287 kts 87°
2026-04-24 19:54 56.02756 37.38787 9900 ft 291 kts 88°
2026-04-24 19:54 56.02718 37.42499 10437 ft 310 kts 88°
2026-04-24 19:54 56.02681 37.46504 10776 ft 333 kts 88°
2026-04-24 19:54 56.02645 37.50732 11423 ft 343 kts 88°
2026-04-24 19:55 56.02621 37.53576 11955 ft 347 kts 88°
2026-04-24 19:55 56.02571 37.59390 13045 ft 353 kts 88°
2026-04-24 19:55 56.02532 37.63763 13791 ft 357 kts 88°
2026-04-24 19:55 56.02494 37.68240 14511 ft 361 kts 88°
2026-04-24 19:56 56.02456 37.72767 15242 ft 365 kts 88°
2026-04-24 19:56 56.02416 37.77341 15972 ft 369 kts 88°
2026-04-24 19:56 56.02375 37.81962 16681 ft 373 kts 88°
2026-04-24 19:56 56.02333 37.86626 17391 ft 377 kts 88°
2026-04-24 19:57 56.02289 37.91284 18055 ft 381 kts 88°
2026-04-24 19:57 56.02241 37.96053 18650 ft 385 kts 87°
2026-04-24 19:57 56.02187 38.00847 19247 ft 388 kts 87°
2026-04-24 19:57 56.02132 38.05697 19853 ft 391 kts 87°
2026-04-24 19:58 56.02074 38.10598 20444 ft 394 kts 87°
2026-04-24 19:58 56.02014 38.15524 21036 ft 397 kts 86°
2026-04-24 19:58 56.01955 38.20415 21606 ft 400 kts 86°
2026-04-24 19:58 56.01894 38.25418 22173 ft 404 kts 86°
2026-04-24 19:59 56.01831 38.30461 22732 ft 407 kts 86°
2026-04-24 19:59 56.01765 38.35549 23253 ft 410 kts 86°
2026-04-24 19:59 56.01691 38.40789 23684 ft 414 kts 86°
2026-04-24 19:59 56.01616 38.45849 24112 ft 417 kts 86°
2026-04-24 20:00 56.01536 38.51048 24526 ft 420 kts 86°
2026-04-24 20:00 56.01454 38.56313 24945 ft 423 kts 86°
2026-04-24 20:00 56.01372 38.61617 25352 ft 427 kts 86°
2026-04-24 20:00 56.01288 38.66938 25759 ft 430 kts 86°
2026-04-24 20:01 56.01201 38.72390 26169 ft 433 kts 86°
2026-04-24 20:01 56.01112 38.77717 26557 ft 436 kts 86°
2026-04-24 20:01 56.01014 38.83301 26961 ft 439 kts 86°
2026-04-24 20:01 56.00915 38.88788 27364 ft 442 kts 86°
2026-04-24 20:02 56.00848 38.92435 27628 ft 444 kts 86°
2026-04-24 20:02 56.00711 38.99799 28154 ft 448 kts 86°
2026-04-24 20:02 56.00598 39.05520 28531 ft 451 kts 86°
2026-04-24 20:02 56.00482 39.11271 28913 ft 454 kts 86°
2026-04-24 20:03 56.00365 39.16918 29258 ft 457 kts 86°
2026-04-24 20:03 56.00246 39.22706 29609 ft 460 kts 86°
2026-04-24 20:03 56.00129 39.28382 29899 ft 463 kts 86°
2026-04-24 20:03 56.00008 39.34136 30182 ft 465 kts 86°
2026-04-24 20:04 55.99884 39.39931 30458 ft 468 kts 86°
2026-04-24 20:04 55.99756 39.45769 30740 ft 470 kts 87°
2026-04-24 20:04 55.99624 39.51595 31116 ft 469 kts 87°
2026-04-24 20:04 55.99493 39.57423 31503 ft 468 kts 86°
2026-04-24 20:05 55.99672 39.63195 31866 ft 462 kts 77°
2026-04-24 20:05 56.00345 39.68850 32234 ft 456 kts 68°
2026-04-24 20:05 56.01465 39.74143 32580 ft 451 kts 60°
2026-04-24 20:05 56.02894 39.79053 32934 ft 449 kts 57°
2026-04-24 20:06 56.03900 39.82433 33177 ft 449 kts 58°
2026-04-24 20:06 56.05375 39.87422 33533 ft 450 kts 58°
2026-04-24 20:06 56.06840 39.92398 33766 ft 450 kts 58°
2026-04-24 20:06 56.08282 39.97317 33992 ft 451 kts 58°
2026-04-24 20:07 56.09268 40.00692 34145 ft 451 kts 58°
2026-04-24 20:07 56.11210 40.07362 34448 ft 452 kts 58°
2026-04-24 20:07 56.12662 40.12368 34567 ft 452 kts 59°
2026-04-24 20:08 56.15548 40.22336 34590 ft 449 kts 59°
2026-04-24 20:08 56.18451 40.32355 34588 ft 449 kts 59°
2026-04-24 20:09 56.21330 40.42331 34590 ft 449 kts 59°
2026-04-24 20:09 56.24164 40.52273 34586 ft 450 kts 61°
2026-04-24 20:10 56.25907 40.63163 34580 ft 458 kts 81°
2026-04-24 20:10 56.25786 40.74699 34574 ft 463 kts 91°
2026-04-24 20:11 56.25307 40.86276 34569 ft 464 kts 91°
2026-04-24 20:11 56.24825 40.97821 34287 ft 465 kts 91°
2026-04-24 20:11 56.24579 41.03615 34059 ft 465 kts 91°
2026-04-24 20:12 56.24327 41.09428 33835 ft 465 kts 91°
2026-04-24 20:12 56.24077 41.15234 33612 ft 465 kts 91°
2026-04-24 20:12 56.23823 41.21041 33357 ft 465 kts 91°
2026-04-24 20:12 56.23566 41.26857 32565 ft 468 kts 92°
2026-04-24 20:13 56.23309 41.32666 31478 ft 474 kts 92°
2026-04-24 20:13 56.23041 41.38615 30549 ft 476 kts 92°
2026-04-24 20:13 56.22770 41.44508 29967 ft 470 kts 92°
2026-04-24 20:13 56.22496 41.50356 29193 ft 467 kts 93°
2026-04-24 20:14 56.22222 41.56131 28526 ft 459 kts 93°
2026-04-24 20:14 56.21951 41.61802 27863 ft 452 kts 94°
2026-04-24 20:14 56.21686 41.67395 27220 ft 446 kts 94°
2026-04-24 20:14 56.21423 41.72918 26579 ft 441 kts 94°
2026-04-24 20:15 56.21161 41.78380 25951 ft 436 kts 95°
2026-04-24 20:15 56.20898 41.83782 25339 ft 431 kts 95°
2026-04-24 20:15 56.20633 41.89129 24727 ft 426 kts 96°
2026-04-24 20:15 56.20373 41.94337 24153 ft 422 kts 96°
2026-04-24 20:16 56.20105 41.99617 23582 ft 417 kts 96°
2026-04-24 20:16 56.19839 42.04785 23001 ft 412 kts 97°
2026-04-24 20:16 56.19578 42.09872 22448 ft 406 kts 96°
2026-04-24 20:16 56.19324 42.14811 21951 ft 399 kts 97°
2026-04-24 20:17 56.19067 42.19747 21467 ft 392 kts 97°
2026-04-24 20:17 56.18553 42.29372 20500 ft 382 kts 97°
2026-04-24 20:17 56.18292 42.34102 20027 ft 378 kts 97°
2026-04-24 20:18 56.18119 42.37205 19698 ft 375 kts 97°
2026-04-24 20:18 56.17772 42.43409 19058 ft 371 kts 97°
2026-04-24 20:18 56.17518 42.47962 18552 ft 369 kts 97°
2026-04-24 20:18 56.17259 42.52541 18070 ft 367 kts 97°
2026-04-24 20:19 56.17000 42.57107 17530 ft 365 kts 97°
2026-04-24 20:19 56.16743 42.61636 17023 ft 363 kts 97°
2026-04-24 20:19 56.16489 42.66126 16524 ft 360 kts 97°
2026-04-24 20:19 56.16234 42.70585 16029 ft 357 kts 96°
2026-04-24 20:20 56.15980 42.74957 15544 ft 355 kts 97°
2026-04-24 20:20 56.15723 42.79372 15057 ft 353 kts 96°
2026-04-24 20:20 56.15467 42.83744 14570 ft 351 kts 96°
2026-04-24 20:20 56.15210 42.88098 14078 ft 349 kts 96°
2026-04-24 20:21 56.14954 42.92426 13607 ft 348 kts 96°
2026-04-24 20:21 56.14698 42.96734 13101 ft 346 kts 96°
2026-04-24 20:21 56.14442 43.00972 12595 ft 344 kts 96°
2026-04-24 20:21 56.14182 43.05221 12102 ft 341 kts 96°
2026-04-24 20:22 56.13923 43.09444 11605 ft 339 kts 97°
2026-04-24 20:22 56.13667 43.13636 11107 ft 336 kts 96°
2026-04-24 20:22 56.13282 43.17757 10598 ft 334 kts 107°
2026-04-24 20:22 56.12398 43.21593 10107 ft 330 kts 121°
2026-04-24 20:23 56.11063 43.24866 9839 ft 320 kts 134°
2026-04-24 20:23 56.09471 43.27482 9706 ft 307 kts 141°
2026-04-24 20:23 56.07881 43.29929 9577 ft 295 kts 140°
2026-04-24 20:23 56.06348 43.32296 9469 ft 287 kts 140°
2026-04-24 20:24 56.05341 43.33849 9456 ft 287 kts 140°
2026-04-24 20:24 56.03282 43.37017 8806 ft 290 kts 140°
2026-04-24 20:24 56.01780 43.39323 8445 ft 286 kts 140°
2026-04-24 20:24 56.00272 43.41635 8038 ft 284 kts 139°
2026-04-24 20:25 55.98974 43.44263 7457 ft 280 kts 124°
2026-04-24 20:25 55.97795 43.46974 6835 ft 273 kts 138°
2026-04-24 20:25 55.96333 43.49098 6187 ft 270 kts 143°
2026-04-24 20:25 55.94914 43.51199 5503 ft 267 kts 131°
2026-04-24 20:26 55.93997 43.54027 5004 ft 264 kts 106°
2026-04-24 20:26 55.93807 43.57277 4871 ft 265 kts 83°
2026-04-24 20:26 55.94230 43.60484 4545 ft 266 kts 73°
2026-04-24 20:26 55.94747 43.63641 4223 ft 260 kts 70°
2026-04-24 20:27 55.95582 43.66357 4158 ft 242 kts 49°
2026-04-24 20:27 55.96801 43.68264 4090 ft 226 kts 30°
2026-04-24 20:27 55.98187 43.69395 4017 ft 213 kts 17°
2026-04-24 20:27 55.99572 43.70053 3922 ft 204 kts 12°
2026-04-24 20:28 56.00941 43.70567 3828 ft 196 kts 11°
2026-04-24 20:28 56.02243 43.71039 3737 ft 189 kts 11°
2026-04-24 20:28 56.03514 43.71499 3681 ft 181 kts 11°
2026-04-24 20:28 56.04707 43.71930 3616 ft 167 kts 11°
2026-04-24 20:29 56.05437 43.72195 3532 ft 157 kts 11°
2026-04-24 20:29 56.06978 43.72753 3284 ft 174 kts 12°
2026-04-24 20:29 56.08171 43.73186 3049 ft 174 kts 12°
2026-04-24 20:29 56.09358 43.73616 2816 ft 174 kts 12°
2026-04-24 20:30 56.10537 43.74045 2579 ft 171 kts 11°
2026-04-24 20:30 56.11700 43.74467 2336 ft 169 kts 11°
2026-04-24 20:30 56.12832 43.74879 2102 ft 164 kts 10°
2026-04-24 20:30 56.13898 43.75268 1890 ft 148 kts
2026-04-24 20:31 56.14859 43.75619 1698 ft 135 kts
2026-04-24 20:31 56.15755 43.75945 1503 ft 129 kts
2026-04-24 20:31 56.16628 43.76262 1322 ft 126 kts
2026-04-24 20:31 56.17487 43.76575 1116 ft 126 kts
2026-04-24 20:32 56.18343 43.76888 977 ft 126 kts
2026-04-24 20:32 56.19204 43.77201 765 ft 127 kts
2026-04-24 20:32 56.20068 43.77515 633 ft 126 kts
2026-04-24 20:32 56.20929 43.77829 430 ft 127 kts
2026-04-24 20:33 56.21781 43.78142 288 ft 124 kts
2026-04-24 20:33 56.22508 43.78405 266 ft 84 kts 11°
2026-04-24 20:33 56.22940 43.78561 268 ft 51 kts 11°
2026-04-24 20:33 56.23271 43.78686 267 ft 48 kts 12°
2026-04-24 20:34 56.23597 43.78802 263 ft 48 kts 11°
2026-04-24 20:34 56.23914 43.78917 267 ft 43 kts 12°
2026-04-24 20:34 56.24097 43.78998 268 ft 14 kts 32°
2026-04-24 20:34 56.24090 43.79165 266 ft 15 kts 121°
2026-04-24 20:35 56.24012 43.79266 266 ft 13 kts 169°
2026-04-24 20:35 56.23922 43.79265 266 ft 14 kts 182°
2026-04-24 20:35 56.23794 43.79257 266 ft 22 kts 182°
2026-04-24 20:35 56.23623 43.79242 266 ft 26 kts 182°
2026-04-24 20:36 56.23441 43.79208 266 ft 28 kts 192°
2026-04-24 20:36 56.23246 43.79136 266 ft 30 kts 191°
2026-04-24 20:36 56.23052 43.79064 266 ft 28 kts 191°
2026-04-24 20:36 56.22856 43.78994 266 ft 28 kts 192°
2026-04-24 20:37 56.22671 43.78926 266 ft 28 kts 192°
2026-04-24 20:37 56.22486 43.78857 266 ft 18 kts 195°
2026-04-24 20:37 56.22376 43.78793 266 ft 16 kts 191°
2026-04-24 20:37 56.22245 43.78745 266 ft 26 kts 192°
2026-04-24 20:38 56.22110 43.78717 266 ft 13 kts 160°
2026-04-24 20:38 56.22039 43.78762 266 ft 9 kts 151°
2026-04-24 20:38 56.22023 43.78844 266 ft 2 kts 101°
2026-04-24 20:38 56.22023 43.78848 266 ft 0 kts 101°